Location: Colossi of Memnon
(25.7167°N, 32.6167°E)
Time: 06:28:24
(UTC+00:00)

ASTRO E2 - Pass Details

Date: 05 March 2021
Orbit: 508 x 514 km, 31.4° (Epoch: 17 April)

Event Time Altitude Azimuth Distance (km) Brightness Sun altitude
Exits shadow 02:56:43 31° 306° (NW) 911 3.5 -17.1°
Maximum altitude 02:58:25 61° 15° (NNE) 581 2.9 -16.7°
Drops below altitude 10° 03:02:21 10° 97° (E) 1,724 6.7 -15.8°
Sets 03:04:36 0° 101° (E) 2,609 8.0 -15.3°
